Overview Statistics Trail Chart Weather Telemetry Raw packets
 

This is the latest recevied weather packets stored in our database for station/object EA5CLU-13. If no packets are shown the sender has not sent any weather packets the latest 10 day(s).

<< 13 14 15 16 17 18 19 >>
Time Temp. Humidity Pressure Rain* Wind** Luminosity Snow
1788037179 20° C - 1021.2 hPa 0 mm - - -
1788036579 20° C - 1021.3 hPa 0 mm - - -
1788035979 20.56° C - 1021.2 hPa 0 mm - - -
1788035379 21.11° C - 1020.9 hPa 0 mm - - -
1788035079 21.11° C - 1020.9 hPa 0 mm - - -
1788034779 20.56° C - 1020.8 hPa 0 mm - - -
1788034478 20.56° C - 1020.7 hPa 0 mm - - -
1788034180 20.56° C - 1020.6 hPa 0 mm - - -
1788033580 20.56° C - 1020.6 hPa 0 mm - - -
1788033280 20.56° C - 1020.6 hPa 0 mm - - -
1788032979 21.11° C - 1020.5 hPa 0 mm - - -
1788032678 21.11° C - 1020.5 hPa 0 mm - - -
1788032380 21.11° C - 1020.3 hPa 0 mm - - -
1788031779 21.67° C - 1020.3 hPa 0 mm - - -
1788031479 21.67° C - 1020.3 hPa 0 mm - - -
1788031226 21.67° C - 1020.1 hPa 0 mm - - -
1788031179 21.67° C - 1020.1 hPa 0 mm - - -
1788030581 22.22° C - 1020 hPa 0 mm - - -
1788030279 22.22° C - 1020.1 hPa 0 mm - - -
1788029979 22.78° C - 1020.1 hPa 0 mm - - -
1788029379 23.33° C - 1019.9 hPa 0 mm - - -
1788028479 23.33° C - 1019.8 hPa 0 mm - - -
1788028179 23.33° C - 1019.9 hPa 0 mm - - -
1788027879 23.33° C - 1019.8 hPa 0 mm - - -
1788026979 23.33° C - 1020 hPa 0 mm - - -

* Rain latest hour (hover to see other rain measurements)
** Current wind speed in m/s (hover to see current wind gust speed)